User: anonymous
Location: The D'Auria's Ocala Star Observatory
(29.0276°N, 82.1742°W)
Time: 15:36:35
(UTC-04:00)
Language:

Okean 3 Rocket - Orbit

View from above orbital plane
View from above orbital plane
View from above satellite
View from above satellite

Ground track
Ground track

The orbit data is extracted from the following two-line orbital elements,

1 21398U 91039B   14212.14297826  .00000191  00000-0  22559-4 0  8047
2 21398 082.5247 125.2654 0022181 034.2482 081.5703 14.79181031248356
Epoch (UTC): 31 July 2014 03:25:53
Eccentricity: 0.0022181
inclination: 82.5247°
perigee height: 616 km
apogee height: 647 km
right ascension of ascending node: 125.2654°
argument of perigee: 34.2482°
revolutions per day: 14.79181031
mean anomaly at epoch: 81.5703°
orbit number at epoch: 24835

The dashed part of the orbit path shows where the satellite is in the earth's shadow,  

DLR